Regional Weather Roundup
Issued by NWS

Home | Current Version | Previous Version | Graphics & Text | Print | Product List | Glossary On
Versions: 1 2 3 4 5 6 7 8 9 10 11 12 13 14 15 16 17 18 19 20 21 22 23 24 25 26 27 28 29 30 31 32 33 34 35 36 37 38 39 40 41 42 43 44 45 46 47 48 49 50
000
ASUS44 KMEG 022010
RWRTN
TENNESSEE HOURLY STATE WEATHER ROUNDUP
NATIONAL WEATHER SERVICE MEMPHIS TN
300 PM CDT SUN AUG 02 2015

TNZ002-004-019-021-049-052-054-088>092-022100-
WEST TENNESSEE

CITY           SKY/WX    TMP DP  RH WIND       PRES   REMARKS
MEMPHIS INTL   PTSUNNY   95  69  42 NW8       29.93F HX 100
NWS MEMPHIS      N/A     90 N/A N/A MISG        N/A
JACKSON        PTSUNNY   93  67  42 VRB3      29.94F HX  96
DYERSBURG        N/A    N/A N/A N/A MISG        N/A
PARIS          SUNNY     88  66  48 CALM      29.97S HX  90
LEXINGTON      SUNNY     91  55  29 W3        29.95F
$$

TNZ008-025-027-028-033-062-065-066-022100-
NORTH MIDDLE TENNESSEE

CITY           SKY/WX    TMP DP  RH WIND       PRES   REMARKS
NASHVILLE      PTSUNNY   88  58  36 E3        29.95F
CLARKSVILLE    MOSUNNY   89  61  38 E3        29.95F
SMYRNA         MOSUNNY   95  58  28 VRB7      29.96F HX  94
CROSSVILLE     SUNNY     84  53  34 W6        30.02F
$$

TNZ061-075-076-078-094-096-097-022100-
SOUTH MIDDLE TENNESSEE

CITY           SKY/WX    TMP DP  RH WIND       PRES   REMARKS
FAYETTEVILLE     N/A     88  54  31 SE6       29.95F
TULLAHOMA      SUNNY     86  48  26 N3        29.98F
WINCHESTER     SUNNY     88  57  35 NE7       29.96F
COLUMBIA       SUNNY     91  55  29 NE7       29.95F
SHELBYVILLE    SUNNY     91  57  31 SW5       29.96F HX  90
$$

TNZ017-018-042-046-047-022100-
NORTHEAST TENNESSEE

CITY           SKY/WX    TMP DP  RH WIND       PRES   REMARKS
TRI CITIES     MOSUNNY   87  50  27 VRB3      29.99F
ELIZABETHTON   CLEAR     84  54  34 CALM      30.00F
$$

TNZ012-013-036-069-073-074-022100-
CENTRAL EAST TENNESSEE

CITY           SKY/WX    TMP DP  RH WIND       PRES   REMARKS
KNOXVILLE      MOSUNNY   89  59  36 W3        29.95F
OAK RIDGE      PTSUNNY   89  59  36 E7        29.97F
GATLINBURG       N/A     90  57  33 NW8       29.95F
MORRISTOWN     CLEAR     88  63  42 VRB6      29.99F
$$

TNZ083-085-099-022100-
SOUTHEAST TENNESSEE

CITY           SKY/WX    TMP DP  RH WIND       PRES   REMARKS
CHATTANOOGA    MOSUNNY   90  58  33 VRB5      29.94F
$$

SKY/WX REPORTED AS FAIR MEANS FEW OR NO CLOUDS BELOW
12 THOUSAND FEET.




USA.gov is the U.S. government's official web portal to all federal, state and local government web resources and services.